Left ArrowRight Arrow

21.30694, -157.85833

Hourly Observations for May 22, 2024

Temp ( °F °C ) Dew Point ( °F °C ) Humidity (%) Winds ( mph kmh ) Pressure ( in mb ) Visibility ( mi km ) Precip ( " mm )
12:53 am 00:53 Mostly Clear 73 22.8 68 20 84 84 NW 7 11 30.05 1018 10 16 0.00 0.00
1:53 am 01:53 Mostly Clear 74 23.3 68 20 82 82 NW 6 9 30.03 1017 10 16 0.00 0.00
2:53 am 02:53 Mostly Clear 73 22.8 68 20 84 84 WNW 3 6 30.02 1017 10 16 0.00 0.00
3:53 am 03:53 Mostly Clear 72 22.2 68 20 87 87 NW 5 7 30.02 1017 10 16 0.00 0.00
4:53 am 04:53 Mostly Clear 72 22.2 68 20 87 87 N 6 9 30.02 1017 10 16 0.00 0.00
5:53 am 05:53 Mostly Sunny 73 22.8 68 20 84 84 NNW 3 6 30.03 1017 10 16 0.00 0.00
6:53 am 06:53 Partly Cloudy 75 23.9 69 20.6 82 82 NW 3 6 30.04 1017 10 16 0.00 0.00
7:53 am 07:53 Partly Cloudy 77 25 68 20 74 74 NW 3 6 30.05 1018 10 16 0.00 0.00
8:53 am 08:53 Partly Cloudy 79 26.1 69 20.6 72 72 SSE 6 9 30.06 1018 10 16 0.00 0.00
9:53 am 09:53 Partly Cloudy 80 26.7 71 21.7 74 74 S 9 15 30.06 1018 10 16 0.00 0.00
10:53 am 10:53 Partly Cloudy 81 27.2 71 21.7 72 72 S 12 19 30.06 1018 10 16 0.00 0.00
11:53 am 11:53 Partly Cloudy 82 27.8 72 22.2 72 72 SSE 14 22 30.04 1017 10 16 0.00 0.00
12:53 pm 12:53 Mostly Cloudy 82 27.8 70 21.1 67 67 SE 13 20 30.03 1017 10 16 0.00 0.00
1:53 pm 13:53 Partly Cloudy 82 27.8 71 21.7 69 69 SE 14 22 30.01 1016 10 16 0.00 0.00
2:53 pm 14:53 Partly Cloudy 84 28.9 68 20 59 59 ENE 17 28 29.99 1016 10 16 0.00 0.00
3:53 pm 15:53 Mostly Cloudy 84 28.9 68 20 59 59 ENE 18 30 29.99 1016 10 16 0.00 0.00
4:53 pm 16:53 Mostly Cloudy 83 28.3 68 20 61 61 ENE 17 28 30.00 1016 10 16 0.00 0.00
5:53 pm 17:53 Mostly Cloudy 79 26.1 67 19.4 67 67 ENE 16 26 30.01 1016 10 16 0.00 0.00
6:53 pm 18:53 Partly Cloudy 78 25.6 67 19.4 69 69 E 13 20 30.04 1017 10 16 0.00 0.00
7:53 pm 19:53 Partly Cloudy 78 25.6 68 20 71 71 ENE 12 19 30.06 1018 10 16 0.00 0.00
8:53 pm 20:53 Partly Cloudy 77 25 68 20 74 74 ENE 9 15 30.08 1019 10 16 0.00 0.00
9:53 pm 21:53 Partly Cloudy 77 25 68 20 74 74 E 7 11 30.09 1019 10 16 0.00 0.00
10:53 pm 22:53 Mostly Clear 77 25 68 20 74 74 E 8 13 30.10 1019 10 16 0.00 0.00
11:53 pm 23:53 Mostly Cloudy 77 25 68 20 74 74 E 8 13 30.09 1019 10 16 0.00 0.00

Powered by Vaisala Xweather